[[{"header":{"parameterUnit":"m.s-1","parameterCategory":2,"la1":30.2991,"la2":30.254,"lo1":-89.0895,"lo2":-89.0444,"dy":0.0017,"dx":0.0017,"nx":28,"ny":28,"refTime":"2024-02-16T03:00:00:Z","depth":"0","parameterNumber":2,"parameterNumberName":"U-component_of_CURRENTS"},"data":[0,0,0,0,0,0,0,0,0,0,0,0,0,0,0,0,0,0,0,0,0,0,0,0,0,0,0,0,0,0,0,0,0,0,0,0,0,0,0,0,0,0,0,0,0,0,0,0,0,0,0,0,0,0,0,0,0,0,-0.2567,-0.2568,0,-0.257,-0.257,-0.2569,-0.2545,-0.2544,-0.2544,-0.2544,-0.2434,-0.2432,-0.2429,0,0,0,0,0,0,0,0,0,0,0,0,0,-0.2352,-0.2357,-0.2567,-0.2568,-0.2568,-0.257,-0.257,-0.2569,-0.2545,-0.2544,-0.2544,-0.2543,-0.2435,-0.2432,-0.2429,0,0,0,0,0,0,0,0,0,0,0,0,0,-0.2407,-0.2359,-0.2567,-0.2558,-0.2557,-0.257,-0.257,-0.2569,-0.2545,-0.2544,-0.2544,-0.2543,-0.2436,-0.2432,-0.2429,-0.2419,0,0,-0.2417,-0.2416,0,0,0,0,0,0,0,0,-0.2404,-0.2415,-0.2559,-0.2559,-0.2558,-0.2559,-0.2454,-0.2514,-0.2545,-0.2547,-0.2544,-0.2543,-0.2468,-0.2461,-0.2461,-0.2414,-0.2409,-0.2417,-0.2415,-0.2413,-0.2412,0,0,0,0,0,0,0,-0.2401,-0.2414,-0.2566,-0.2559,-0.2559,-0.2488,-0.2497,-0.2464,-0.2507,-0.2547,-0.2546,-0.255,-0.2466,-0.2465,-0.2458,-0.2407,-0.2417,-0.2414,-0.2411,-0.241,-0.2313,-0.2312,0,0,0,0,0,0,-0.2418,-0.2412,-0.2566,-0.2566,-0.2481,-0.2494,-0.2503,-0.2557,-0.251,-0.2504,-0.2551,-0.2549,-0.2472,-0.2462,-0.2454,-0.2419,-0.2413,-0.2409,-0.2407,-0.2313,-0.2313,-0.2312,0,0,0,0,0,0,-0.2414,-0.2434,-0.2566,-0.2487,-0.2499,-0.25,-0.2559,-0.2557,-0.256,-0.2514,-0.2505,-0.2555,-0.2471,-0.2459,-0.2429,-0.2415,-0.2408,-0.2404,-0.2313,-0.2313,-0.2313,-0.2361,0,0,0,0,0,0,-0.2409,-0.2433,-0.2483,-0.2491,-0.2505,-0.2588,-0.256,-0.2558,-0.2564,-0.2562,-0.2515,-0.2504,-0.2469,-0.2436,-0.2426,-0.241,-0.2401,-0.2314,-0.2313,-0.2313,-0.236,-0.2362,-0.2364,0,0,0,0,0,-0.2402,-0.2479,-0.2487,-0.2505,-0.2574,-0.2589,-0.259,-0.2583,-0.2566,-0.2579,-0.2539,-0.2506,-0.2424,-0.2433,-0.2421,-0.2404,-0.2314,-0.2313,-0.2313,-0.2359,-0.2362,-0.2364,0,0,0,0,0,0,-0.244,-0.2485,-0.2493,-0.259,-0.2592,-0.2586,-0.26,-0.259,-0.2571,-0.2559,-0.2511,-0.2498,-0.2459,-0.2431,-0.2442,-0.2373,-0.236,-0.2357,-0.2399,-0.2401,-0.2403,-0.2342,-0.2398,0,0,0,0,0,-0.2468,-0.2516,-0.2544,-0.2614,-0.2619,-0.2606,-0.2613,-0.2604,-0.2586,-0.2579,-0.2538,-0.249,-0.2447,-0.2427,-0.2384,-0.2359,-0.23,-0.2336,-0.2338,-0.2341,-0.2282,-0.2198,-0.2187,-0.231,-0.231,-0.231,0,0,-0.2497,-0.2528,-0.2557,-0.2619,-0.2614,-0.2612,-0.2608,-0.2619,-0.2599,-0.2566,-0.2524,-0.2495,-0.2442,-0.2405,-0.2385,-0.2381,-0.2288,-0.234,-0.2342,-0.2281,-0.2196,-0.2183,-0.2172,-0.2309,-0.231,-0.231,0,0,-0.253,-0.2608,-0.2628,-0.2632,-0.2636,-0.2631,-0.2636,-0.2625,-0.2609,-0.2582,-0.2539,-0.2498,-0.245,-0.2398,-0.2368,-0.2355,-0.23,-0.2356,-0.2318,-0.224,-0.2228,-0.2217,-0.2186,-0.2171,-0.2361,-0.2361,-0.2361,0,-0.2552,-0.2583,-0.2634,-0.2635,-0.261,-0.2636,-0.2607,-0.2618,-0.2592,-0.255,-0.257,-0.2453,-0.243,-0.2346,-0.2346,-0.2354,-0.2315,-0.2321,-0.2241,-0.2228,-0.2216,-0.2185,-0.2168,-0.2363,-0.2363,-0.2363,-0.2362,0,-0.2567,-0.2581,-0.2589,-0.2587,-0.2594,-0.2573,-0.2582,-0.2575,-0.2557,-0.2535,-0.2458,-0.2433,-0.2351,-0.2359,-0.2348,-0.2249,-0.2256,-0.2255,-0.2234,-0.2206,-0.2177,-0.2159,-0.2366,-0.2366,-0.2365,-0.2364,0,0,-0.2589,-0.2588,-0.258,-0.2526,-0.2541,-0.2526,-0.2521,-0.2478,-0.2431,-0.2432,-0.2341,-0.2303,-0.2286,-0.2247,-0.2239,-0.2178,-0.2104,-0.218,-0.2175,-0.2147,-0.1954,-0.1855,-0.1825,-0.2093,-0.2089,-0.2085,-0.1991,0,-0.2538,-0.2485,-0.2517,-0.2439,-0.2384,-0.2406,-0.2386,-0.2369,-0.2356,-0.2302,-0.2278,-0.2211,-0.2252,-0.2212,-0.2163,-0.211,-0.2046,-0.213,-0.1982,-0.1977,-0.1889,-0.1795,-0.1698,-0.1593,-0.1973,-0.1969,-0.1967,0,-0.2488,-0.2446,-0.235,-0.2277,-0.2261,-0.2244,-0.2165,-0.2159,-0.2139,-0.2128,-0.2089,-0.2088,-0.2023,-0.2056,-0.1943,-0.1999,-0.1953,-0.1921,-0.1918,-0.1769,-0.1837,-0.1668,-0.1544,-0.1539,-0.1938,-0.194,-0.1942,0,-0.2349,-0.2308,-0.2199,-0.2177,-0.214,-0.2094,-0.2088,-0.2075,-0.2054,-0.2013,-0.1993,-0.1938,-0.1907,-0.1839,-0.1819,-0.1867,-0.168,-0.1751,-0.1612,-0.161,-0.1458,-0.1446,-0.1288,-0.1602,-0.1603,-0.1603,-0.1603,0,-0.2207,-0.2119,-0.2125,-0.2044,-0.1952,-0.1973,-0.1889,-0.1891,-0.1885,-0.1856,-0.189,-0.1849,-0.184,-0.1774,-0.1751,-0.1614,-0.1631,-0.1541,-0.1537,-0.1481,-0.1472,-0.1405,-0.1458,-0.1599,-0.16,-0.1601,-0.1601,0,-0.2017,-0.2015,-0.1908,-0.187,-0.1866,-0.1799,-0.1811,-0.1778,-0.1783,-0.1747,-0.1737,-0.1754,-0.1672,-0.1646,-0.1535,-0.1511,-0.1357,-0.1338,-0.1294,-0.1281,-0.1153,-0.1214,-0.102,-0.0993,-0.1172,-0.1168,-0.1165,0,-0.1887,-0.1811,-0.1789,-0.1768,-0.1742,-0.1692,-0.1686,-0.1711,-0.1708,-0.1693,-0.1673,-0.1595,-0.1515,-0.1335,-0.1255,-0.1135,-0.119,-0.0989,-0.1029,-0.1056,-0.1124,-0.1201,-0.1201,-0.0898,-0.0893,-0.0888,-0.0885,0,-0.1662,-0.1686,-0.1631,-0.1606,-0.1589,-0.1574,-0.1571,-0.1554,-0.1593,-0.1532,-0.1439,-0.1351,-0.1222,-0.1026,-0.0898,-0.086,-0.0959,-0.0898,-0.0911,-0.0836,-0.0917,-0.0921,-0.1112,-0.0848,-0.0852,-0.0855,-0.0857,-0.0858,-0.1539,-0.1492,-0.1482,-0.1448,-0.1456,-0.1445,-0.1365,-0.1375,-0.1296,-0.1144,-0.1175,-0.0905,-0.0773,-0.0563,-0.0589,-0.0536,-0.0662,-0.0526,-0.0589,-0.0659,-0.0618,-0.0729,-0.0467,-0.0468,-0.0469,-0.0471,-0.0472,0,-0.138,-0.1368,-0.1337,-0.1311,-0.1293,-0.1326,-0.1282,-0.1162,-0.0998,-0.0844,-0.065,-0.0291,-0.0167,-0.0164,-0.0159,-0.0209,-0.03,-0.0266,-0.0367,-0.0377,-0.0432,-0.0404,-0.013,-0.013,-0.013,-0.013,-0.013,-0.013,-0.13,-0.1231,-0.1228,-0.1156,-0.1147,-0.1,-0.0929,-0.0757,-0.0581,-0.0196,0.0091,0.0226,0.0231,0.0142,-0.0014,-0.0085,-0.0175,-0.0174,-0.0255,-0.033,-0.0361,-0.0392,-0.0373,-0.0097,-0.0097,-0.0159,-0.016,-0.016]},{"header":{"parameterUnit":"m.s-1","parameterCategory":2,"la1":30.2991,"la2":30.254,"lo1":-89.0895,"lo2":-89.0444,"dy":0.0017,"dx":0.0017,"nx":28,"ny":28,"refTime":"2024-02-16T03:00:00:Z","depth":"0","parameterNumber":3,"parameterNumberName":"V-component_of_CURRENTS"},"data":[0,0,0,0,0,0,0,0,0,0,0,0,0,0,0,0,0,0,0,0,0,0,0,0,0,0,0,0,0,0,0,0,0,0,0,0,0,0,0,0,0,0,0,0,0,0,0,0,0,0,0,0,0,0,0,0,0,0,-0.0252,-0.025,0,-0.0045,-0.0043,-0.004,0.0057,0.0057,0.0056,0.0056,0.0323,0.0331,0.0338,0,0,0,0,0,0,0,0,0,0,0,0,0,-0.0457,-0.0454,-0.0252,-0.025,-0.0248,-0.0046,-0.0043,-0.0039,0.0057,0.0057,0.0056,0.0056,0.0321,0.033,0.0339,0,0,0,0,0,0,0,0,0,0,0,0,0,-0.0318,-0.0453,-0.0253,-0.0178,-0.017,-0.0047,-0.0043,-0.0039,0.0057,0.0057,0.0056,0.0055,0.0318,0.0329,0.034,0.0425,0,0,0.0375,0.038,0,0,0,0,0,0,0,0,-0.0326,-0.031,-0.0191,-0.0183,-0.0173,-0.0024,-0.0017,0.0118,0.0058,-0.0025,0.0056,0.0055,0.0211,0.0231,0.0276,0.0437,0.0449,0.0376,0.0383,0.0387,0.0391,0,0,0,0,0,0,0,-0.0336,-0.0318,-0.0166,-0.0189,-0.0178,-0.0119,-0.01,0.001,0.0099,-0.0017,-0.0011,0.0006,0.0216,0.0265,0.0283,0.0452,0.0375,0.0385,0.0392,0.0397,0.0637,0.0636,0,0,0,0,0,0,-0.0373,-0.0327,-0.0173,-0.0161,-0.0257,-0.0115,-0.0094,-0.0068,0.0097,0.0119,0.0007,0.001,0.0246,0.027,0.0293,0.0334,0.0387,0.0398,0.0404,0.0637,0.0637,0.0636,0,0,0,0,0,0,-0.0378,-0.0361,-0.0181,-0.0243,-0.0217,-0.0112,-0.0083,-0.0064,-0.0029,0.0113,0.0138,0.0019,0.0246,0.0277,0.0388,0.0347,0.0403,0.0413,0.0638,0.0637,0.0636,0.0461,0,0,0,0,0,0,-0.0385,-0.0364,-0.0352,-0.0245,-0.0215,-0.0124,-0.0082,-0.0059,-0.0018,-0.0012,0.0133,0.0158,0.0248,0.037,0.0399,0.0364,0.0422,0.0638,0.0637,0.0637,0.0467,0.0454,0.0443,0,0,0,0,0,-0.0393,-0.0369,-0.0352,-0.0334,-0.0203,-0.0125,-0.0103,-0.0028,-0.0018,-0.0001,0.01,0.0152,0.0384,0.0381,0.0414,0.0381,0.0639,0.0638,0.0637,0.0472,0.0456,0.0443,0,0,0,0,0,0,-0.0445,-0.0355,-0.0334,-0.0283,-0.0223,-0.011,-0.0079,-0.0043,0.0051,0.0059,0.0177,0.0211,0.0282,0.0369,0.0362,0.0447,0.0508,0.0514,0.0371,0.0358,0.0346,0.0295,0.0432,0,0,0,0,0,-0.0456,-0.0421,-0.0334,-0.0299,-0.0271,-0.0185,-0.0144,-0.0099,-0.0007,0.0032,0.013,0.023,0.0309,0.0361,0.0458,0.0528,0.0565,0.0521,0.0509,0.0498,0.0479,0.0465,0.0448,0.0633,0.0633,0.0633,0,0,-0.0468,-0.0415,-0.0394,-0.0309,-0.0252,-0.0219,-0.016,-0.0106,-0.009,0.005,0.0115,0.0202,0.032,0.0385,0.0422,0.0451,0.0474,0.0496,0.0486,0.0473,0.0462,0.0443,0.0426,0.0632,0.0632,0.0632,0,0,-0.049,-0.0429,-0.0419,-0.0373,-0.0303,-0.0243,-0.0243,-0.0143,-0.0111,-0.0028,0.0047,0.0106,0.0267,0.0313,0.0361,0.0346,0.0409,0.0373,0.0276,0.0261,0.0244,0.0229,0.0281,0.0272,0.0367,0.0366,0.0366,0,-0.0513,-0.0484,-0.0404,-0.0389,-0.0363,-0.0271,-0.0268,-0.0211,-0.0094,-0.0083,-0.0028,0.0121,0.0221,0.0245,0.024,0.0311,0.0338,0.0314,0.0238,0.0225,0.0213,0.0269,0.0262,0.0358,0.0359,0.036,0.036,0,-0.0537,-0.0513,-0.0501,-0.0456,-0.0417,-0.039,-0.0319,-0.0282,-0.0229,-0.0181,-0.0139,-0.0011,0.0067,0.0092,0.0176,0.013,0.0191,0.0217,0.0258,0.0182,0.0249,0.0244,0.0345,0.0349,0.0351,0.0353,0,0,-0.0601,-0.0534,-0.0535,-0.0529,-0.0454,-0.0421,-0.0406,-0.0369,-0.0373,-0.0284,-0.0294,-0.0187,-0.0141,-0.0085,-0.0006,-0.0016,-0.0055,0.0058,0.0061,0.0081,-0.0049,0.0032,0.0037,-0.0058,-0.006,-0.0062,0.0041,0,-0.0653,-0.0645,-0.0603,-0.0601,-0.0585,-0.0519,-0.0509,-0.0469,-0.0416,-0.0389,-0.0331,-0.0281,-0.0204,-0.0169,-0.0178,-0.007,-0.0079,-0.0082,0.0048,0.0053,0.0107,0.0028,0.0074,0.0171,0.0037,0.0036,0.0036,0,-0.0705,-0.0688,-0.0698,-0.0667,-0.066,-0.0648,-0.0626,-0.0605,-0.0565,-0.0527,-0.0506,-0.0432,-0.0405,-0.0337,-0.0259,-0.0264,-0.0182,-0.0114,-0.0109,0.0018,0.0122,0.0224,0.0169,0.0248,0.003,0.003,0.0031,0,-0.0775,-0.076,-0.077,-0.0757,-0.0704,-0.0716,-0.0692,-0.0655,-0.0645,-0.062,-0.0594,-0.0566,-0.0498,-0.0456,-0.0277,-0.0284,-0.0179,-0.0164,-0.0022,-0.0011,0.0081,0.0103,0.0088,-0.0161,-0.0161,-0.0161,-0.0161,0,-0.083,-0.0837,-0.0803,-0.0798,-0.082,-0.0774,-0.0793,-0.0765,-0.0739,-0.0711,-0.0669,-0.0617,-0.0532,-0.0434,-0.0327,-0.016,-0.0214,-0.0057,-0.0005,0.003,0.0045,0.0165,0.0192,-0.0157,-0.0158,-0.0159,-0.016,0,-0.0875,-0.0857,-0.0863,-0.0842,-0.0841,-0.0851,-0.0834,-0.0845,-0.0804,-0.0767,-0.0758,-0.0654,-0.0512,-0.0399,-0.0263,-0.0177,0.0011,0.0013,0.0088,0.0144,0.0313,0.033,0.0383,0.0461,0.0146,0.0149,0.0151,0,-0.0883,-0.089,-0.0893,-0.0908,-0.0896,-0.0906,-0.0914,-0.0881,-0.0869,-0.0754,-0.0729,-0.0596,-0.0437,-0.0206,-0.0073,0.0097,0.0145,0.0229,0.0195,0.0307,0.0364,0.0363,0.0424,0.0277,0.0279,0.0281,0.0283,0,-0.0896,-0.0905,-0.091,-0.0945,-0.0963,-0.0975,-0.0967,-0.0941,-0.0868,-0.076,-0.0576,-0.0441,-0.0241,-0.0015,0.0166,0.0255,0.0289,0.028,0.0348,0.0409,0.0453,0.0561,0.0276,0.0303,0.0301,0.03,0.0299,0.0298,-0.0903,-0.0921,-0.0943,-0.0978,-0.1008,-0.1001,-0.0934,-0.0868,-0.0739,-0.0468,-0.0399,-0.0064,0.0083,0.0353,0.04,0.053,0.0481,0.0575,0.0579,0.0563,0.0635,0.0421,0.0529,0.0529,0.0528,0.0528,0.0527,0,-0.09,-0.0932,-0.0973,-0.1,-0.1034,-0.1026,-0.0937,-0.0795,-0.0533,-0.0266,0.0013,0.0441,0.059,0.0669,0.0776,0.0832,0.082,0.0854,0.084,0.0884,0.066,0.0662,0.0861,0.0861,0.0861,0.0861,0.086,0.086,-0.0898,-0.0937,-0.0967,-0.1015,-0.1018,-0.0895,-0.0785,-0.0536,-0.0284,0.026,0.0648,0.089,0.1023,0.0974,0.1028,0.1044,0.1131,0.1095,0.1145,0.0966,0.0939,0.0914,0.092,0.1169,0.117,0.138,0.1382,0.1383]}],[{"header":{"parameterUnit":"m.s-1","parameterCategory":2,"la1":30.2991,"la2":30.254,"lo1":-89.0895,"lo2":-89.0444,"dy":0.0017,"dx":0.0017,"nx":28,"ny":28,"refTime":"2024-02-16T03:00:00:Z","depth":"2","parameterNumber":2,"parameterNumberName":"U-component_of_CURRENTS"},"data":[0,0,0,0,0,0,0,0,0,0,0,0,0,0,0,0,0,0,0,0,0,0,0,0,0,0,0,0,0,0,0,0,0,0,0,0,0,0,0,0,0,0,0,0,0,0,0,0,0,0,0,0,0,0,0,0,0,0,-0.1781,-0.1781,0,-0.1817,-0.1818,-0.1818,-0.1806,-0.1805,-0.1804,-0.1803,-0.1839,-0.1841,-0.1842,0,0,0,0,0,0,0,0,0,0,0,0,0,-0.177,-0.177,-0.178,-0.1781,-0.1781,-0.1817,-0.1818,-0.1818,-0.1806,-0.1805,-0.1804,-0.1803,-0.1838,-0.184,-0.1842,0,0,0,0,0,0,0,0,0,0,0,0,0,-0.1788,-0.177,-0.178,-0.1779,-0.178,-0.1817,-0.1818,-0.1818,-0.1806,-0.1805,-0.1803,-0.1802,-0.1838,-0.184,-0.1843,-0.1883,0,0,-0.1851,-0.1852,0,0,0,0,0,0,0,0,-0.1786,-0.1788,-0.1779,-0.1779,-0.178,-0.1805,-0.1827,-0.184,-0.1806,-0.1796,-0.1803,-0.1802,-0.1828,-0.1832,-0.1842,-0.1885,-0.1886,-0.1851,-0.1852,-0.1853,-0.1854,0,0,0,0,0,0,0,-0.1785,-0.1787,-0.1795,-0.178,-0.178,-0.1801,-0.1802,-0.183,-0.1819,-0.1797,-0.1796,-0.18,-0.1828,-0.1839,-0.1842,-0.1887,-0.1851,-0.1853,-0.1855,-0.1856,-0.1957,-0.1959,0,0,0,0,0,0,-0.1778,-0.1785,-0.1794,-0.1796,-0.178,-0.1802,-0.1803,-0.1799,-0.1819,-0.182,-0.1801,-0.18,-0.1835,-0.1839,-0.1843,-0.1851,-0.1853,-0.1856,-0.1857,-0.1956,-0.1958,-0.1959,0,0,0,0,0,0,-0.1778,-0.1778,-0.1792,-0.1792,-0.1795,-0.1803,-0.1799,-0.18,-0.182,-0.1822,-0.1823,-0.1821,-0.1835,-0.184,-0.185,-0.1854,-0.1857,-0.1859,-0.1955,-0.1957,-0.1958,-0.1893,0,0,0,0,0,0,-0.1777,-0.1778,-0.1776,-0.1791,-0.1795,-0.1817,-0.18,-0.1802,-0.1824,-0.1822,-0.184,-0.1841,-0.1834,-0.1846,-0.1853,-0.1857,-0.1861,-0.1953,-0.1956,-0.1958,-0.1893,-0.1892,-0.1891,0,0,0,0,0,-0.1776,-0.1775,-0.1775,-0.1776,-0.179,-0.1817,-0.1822,-0.1824,-0.1826,-0.1838,-0.1831,-0.1841,-0.1866,-0.1848,-0.1856,-0.1861,-0.1952,-0.1955,-0.1958,-0.1894,-0.1892,-0.1891,0,0,0,0,0,0,-0.1765,-0.1774,-0.1774,-0.1774,-0.1796,-0.1815,-0.1823,-0.1839,-0.1848,-0.1842,-0.1846,-0.1846,-0.1852,-0.1883,-0.1864,-0.1903,-0.1917,-0.1921,-0.1866,-0.1865,-0.1863,-0.1833,-0.1864,0,0,0,0,0,-0.1764,-0.1763,-0.1784,-0.1783,-0.1794,-0.1817,-0.1831,-0.1839,-0.1848,-0.1852,-0.1853,-0.1866,-0.1872,-0.1886,-0.1892,-0.1924,-0.1913,-0.194,-0.1939,-0.1937,-0.1922,-0.1895,-0.1888,-0.1968,-0.1968,-0.1968,0,0,-0.1757,-0.1763,-0.1761,-0.1781,-0.1795,-0.181,-0.1822,-0.1845,-0.1849,-0.1856,-0.1851,-0.1853,-0.1877,-0.1881,-0.1892,-0.1907,-0.1913,-0.1941,-0.1938,-0.1924,-0.1897,-0.1888,-0.1881,-0.1969,-0.1969,-0.1969,0,0,-0.1751,-0.1752,-0.1756,-0.1775,-0.1803,-0.1814,-0.1827,-0.1849,-0.1849,-0.1863,-0.1849,-0.1836,-0.1886,-0.1861,-0.187,-0.1878,-0.1894,-0.1922,-0.19,-0.1874,-0.1866,-0.1858,-0.1834,-0.1825,-0.1935,-0.1935,-0.1935,0,-0.1744,-0.1746,-0.1764,-0.1779,-0.1788,-0.1817,-0.183,-0.184,-0.1856,-0.1848,-0.1856,-0.1859,-0.1861,-0.1846,-0.184,-0.1866,-0.1871,-0.1893,-0.1866,-0.1858,-0.1852,-0.1829,-0.1819,-0.1932,-0.1933,-0.1933,-0.1933,0,-0.1748,-0.175,-0.1756,-0.1773,-0.179,-0.1806,-0.1823,-0.1828,-0.1837,-0.1839,-0.1826,-0.1813,-0.1813,-0.1824,-0.1833,-0.1804,-0.1829,-0.1848,-0.1854,-0.1838,-0.1817,-0.1808,-0.1928,-0.1929,-0.193,-0.1931,0,0,-0.1723,-0.1752,-0.1752,-0.1755,-0.1788,-0.1799,-0.1803,-0.1808,-0.1803,-0.1805,-0.1789,-0.177,-0.1764,-0.1772,-0.1778,-0.1758,-0.17,-0.1795,-0.1795,-0.1742,-0.1657,-0.1567,-0.1549,-0.1728,-0.1726,-0.1725,-0.1659,0,-0.1719,-0.1733,-0.1751,-0.1756,-0.1762,-0.1783,-0.1784,-0.179,-0.1794,-0.1782,-0.1762,-0.1751,-0.1751,-0.175,-0.1723,-0.1714,-0.1677,-0.1716,-0.1705,-0.1704,-0.1601,-0.1535,-0.1434,-0.1357,-0.165,-0.1649,-0.1648,0,-0.171,-0.172,-0.1725,-0.1737,-0.1743,-0.1749,-0.1747,-0.1754,-0.1747,-0.1751,-0.1731,-0.1731,-0.1688,-0.1699,-0.1638,-0.1678,-0.1653,-0.1639,-0.1637,-0.1564,-0.1596,-0.1424,-0.133,-0.1633,-0.1634,-0.1635,-0.1636,0,-0.167,-0.1694,-0.1691,-0.1698,-0.1723,-0.172,-0.1731,-0.1734,-0.1731,-0.1724,-0.1721,-0.169,-0.1667,-0.1638,-0.1597,-0.1632,-0.1533,-0.1577,-0.146,-0.1455,-0.1366,-0.1355,-0.1503,-0.1503,-0.1504,-0.1504,-0.1504,0,-0.1644,-0.164,-0.1671,-0.1668,-0.1659,-0.1692,-0.1679,-0.1689,-0.1697,-0.1681,-0.1694,-0.1665,-0.1653,-0.1605,-0.1582,-0.1474,-0.1511,-0.1419,-0.1414,-0.1343,-0.1331,-0.158,-0.159,-0.1501,-0.1502,-0.1502,-0.1503,0,-0.1585,-0.1612,-0.1604,-0.1629,-0.1636,-0.1625,-0.1648,-0.1643,-0.1662,-0.1642,-0.1639,-0.1634,-0.1566,-0.1532,-0.1471,-0.1428,-0.1356,-0.1307,-0.1219,-0.1202,-0.1308,-0.1316,-0.1177,-0.1173,-0.1169,-0.1166,-0.1164,0,-0.1551,-0.1541,-0.1559,-0.1556,-0.1563,-0.1564,-0.1569,-0.1608,-0.1608,-0.1607,-0.159,-0.1536,-0.1465,-0.1337,-0.1244,-0.1146,-0.1234,-0.101,-0.1027,-0.1255,-0.1266,-0.128,-0.1292,-0.0899,-0.0895,-0.0891,-0.0888,0,-0.1474,-0.1481,-0.1479,-0.1472,-0.1476,-0.1476,-0.1489,-0.1481,-0.1519,-0.1506,-0.1456,-0.1401,-0.1273,-0.1106,-0.098,-0.0926,-0.1022,-0.093,-0.117,-0.0993,-0.0986,-0.1,-0.1022,-0.0856,-0.0859,-0.0861,-0.0863,-0.0864,-0.1406,-0.1383,-0.1382,-0.1365,-0.1377,-0.1361,-0.1314,-0.1343,-0.1314,-0.1257,-0.129,-0.1169,-0.1106,-0.0841,-0.0746,-0.0671,-0.076,-0.074,-0.0755,-0.0772,-0.0747,-0.0733,-0.0552,-0.0553,-0.0554,-0.0555,-0.0556,0,-0.13,-0.1288,-0.1276,-0.1246,-0.121,-0.1254,-0.1237,-0.1174,-0.1097,-0.1082,-0.1016,-0.0849,-0.0705,-0.0651,-0.0464,-0.0407,-0.0442,-0.0401,-0.0462,-0.0493,-0.052,-0.0486,-0.022,-0.0219,-0.0218,-0.0218,0,0,-0.1244,-0.1191,-0.1183,-0.1079,-0.1059,-0.0963,-0.0922,-0.0868,-0.0826,-0.0729,-0.0668,-0.0683,-0.0644,-0.0457,-0.0379,-0.027,-0.0392,-0.0248,-0.0515,-0.062,-0.0647,-0.0704,-0.0682,0,0,0,0,0]},{"header":{"parameterUnit":"m.s-1","parameterCategory":2,"la1":30.2991,"la2":30.254,"lo1":-89.0895,"lo2":-89.0444,"dy":0.0017,"dx":0.0017,"nx":28,"ny":28,"refTime":"2024-02-16T03:00:00:Z","depth":"2","parameterNumber":3,"parameterNumberName":"V-component_of_CURRENTS"},"data":[0,0,0,0,0,0,0,0,0,0,0,0,0,0,0,0,0,0,0,0,0,0,0,0,0,0,0,0,0,0,0,0,0,0,0,0,0,0,0,0,0,0,0,0,0,0,0,0,0,0,0,0,0,0,0,0,0,0,-0.052,-0.0519,0,-0.0487,-0.0486,-0.0486,-0.0453,-0.0453,-0.0453,-0.0452,-0.0361,-0.0359,-0.0357,0,0,0,0,0,0,0,0,0,0,0,0,0,-0.0518,-0.0518,-0.052,-0.0519,-0.0519,-0.0487,-0.0486,-0.0486,-0.0453,-0.0453,-0.0453,-0.0452,-0.0362,-0.0359,-0.0357,0,0,0,0,0,0,0,0,0,0,0,0,0,-0.0505,-0.0518,-0.052,-0.0499,-0.0497,-0.0487,-0.0486,-0.0486,-0.0454,-0.0453,-0.0452,-0.0452,-0.0362,-0.0359,-0.0356,-0.0349,0,0,-0.0347,-0.0346,0,0,0,0,0,0,0,0,-0.0505,-0.0505,-0.0503,-0.0501,-0.0498,-0.0474,-0.0452,-0.0437,-0.0454,-0.047,-0.0452,-0.0452,-0.0394,-0.0388,-0.0384,-0.0345,-0.0341,-0.0347,-0.0345,-0.0343,-0.0343,0,0,0,0,0,0,0,-0.0506,-0.0506,-0.0506,-0.0502,-0.0499,-0.0479,-0.0477,-0.0449,-0.0434,-0.0468,-0.0466,-0.0463,-0.0392,-0.0387,-0.0381,-0.034,-0.0347,-0.0344,-0.0342,-0.0341,-0.0264,-0.0264,0,0,0,0,0,0,-0.0514,-0.0507,-0.0507,-0.0505,-0.0501,-0.048,-0.0477,-0.0482,-0.0436,-0.0429,-0.0464,-0.0462,-0.0392,-0.0385,-0.0378,-0.0339,-0.0344,-0.0341,-0.0339,-0.0264,-0.0264,-0.0264,0,0,0,0,0,0,-0.0514,-0.0515,-0.0509,-0.0505,-0.0503,-0.0481,-0.0486,-0.0482,-0.0474,-0.0433,-0.0424,-0.046,-0.0392,-0.0382,-0.0366,-0.0336,-0.0339,-0.0336,-0.0264,-0.0264,-0.0264,-0.0279,0,0,0,0,0,0,-0.0515,-0.0515,-0.0523,-0.0506,-0.0503,-0.0504,-0.0486,-0.0481,-0.0473,-0.047,-0.0427,-0.0418,-0.039,-0.0371,-0.0363,-0.0332,-0.0334,-0.0264,-0.0264,-0.0264,-0.0279,-0.0279,-0.028,0,0,0,0,0,-0.0515,-0.0529,-0.0524,-0.0524,-0.0515,-0.0505,-0.0502,-0.0483,-0.0474,-0.0473,-0.0453,-0.0419,-0.0362,-0.0369,-0.0359,-0.0327,-0.0265,-0.0264,-0.0264,-0.0278,-0.0279,-0.028,0,0,0,0,0,0,-0.0532,-0.0526,-0.0521,-0.0532,-0.052,-0.0499,-0.05,-0.0486,-0.0471,-0.0468,-0.043,-0.042,-0.0389,-0.0366,-0.0375,-0.0305,-0.0302,-0.0299,-0.0316,-0.0316,-0.0317,-0.0318,-0.0331,0,0,0,0,0,-0.0541,-0.0551,-0.0536,-0.0546,-0.0541,-0.0521,-0.0515,-0.0503,-0.0486,-0.0479,-0.045,-0.0416,-0.038,-0.0358,-0.033,-0.03,-0.0275,-0.0269,-0.027,-0.027,-0.0266,-0.0219,-0.0214,-0.0262,-0.0262,-0.0262,0,0,-0.0553,-0.0549,-0.0556,-0.055,-0.054,-0.0531,-0.0516,-0.0511,-0.0499,-0.0471,-0.0451,-0.0422,-0.0376,-0.0341,-0.0323,-0.0317,-0.0246,-0.027,-0.027,-0.0265,-0.0218,-0.0213,-0.0209,-0.0262,-0.0262,-0.0262,0,0,-0.0572,-0.0576,-0.0584,-0.0575,-0.0562,-0.0546,-0.0545,-0.0526,-0.0512,-0.0501,-0.0465,-0.0429,-0.0388,-0.0339,-0.0311,-0.0299,-0.0255,-0.028,-0.0274,-0.0229,-0.0224,-0.022,-0.0192,-0.0185,-0.0274,-0.0274,-0.0274,0,-0.0585,-0.059,-0.0584,-0.0582,-0.0572,-0.0553,-0.0548,-0.0533,-0.051,-0.0492,-0.0499,-0.0418,-0.0383,-0.0312,-0.0306,-0.0295,-0.0273,-0.0275,-0.0229,-0.0224,-0.0219,-0.0191,-0.0183,-0.0274,-0.0274,-0.0274,-0.0274,0,-0.0601,-0.0603,-0.0606,-0.0595,-0.0586,-0.0581,-0.0557,-0.0544,-0.0531,-0.0506,-0.0456,-0.0419,-0.0364,-0.0339,-0.032,-0.0252,-0.0249,-0.024,-0.0227,-0.0215,-0.0187,-0.0178,-0.0275,-0.0275,-0.0275,-0.0275,0,0,-0.0636,-0.0621,-0.0622,-0.0614,-0.059,-0.0585,-0.0563,-0.053,-0.0509,-0.0484,-0.0448,-0.0383,-0.0357,-0.0324,-0.0281,-0.0237,-0.0188,-0.0225,-0.0223,-0.0198,-0.0098,-0.008,-0.0069,-0.0171,-0.0169,-0.0168,-0.0095,0,-0.0647,-0.0646,-0.0632,-0.0623,-0.0617,-0.0588,-0.057,-0.0538,-0.051,-0.0474,-0.0416,-0.0375,-0.0351,-0.0325,-0.0274,-0.0212,-0.0165,-0.021,-0.0113,-0.011,-0.0095,-0.0057,-0.0064,0.0002,-0.0087,-0.0085,-0.0084,0,-0.0663,-0.0659,-0.0655,-0.063,-0.0625,-0.0617,-0.0578,-0.0559,-0.0498,-0.0476,-0.0418,-0.0379,-0.0301,-0.0297,-0.0177,-0.0208,-0.0152,-0.0109,-0.0105,-0.0074,-0.0075,-0.0022,0.0021,-0.007,-0.0071,-0.0072,-0.0073,0,-0.0687,-0.0673,-0.067,-0.0663,-0.0635,-0.0626,-0.0609,-0.0559,-0.054,-0.0476,-0.0454,-0.0364,-0.0323,-0.0241,-0.0151,-0.0163,-0.003,-0.0036,0.0036,0.0037,0.0059,0.0059,0.0053,0.0053,0.0053,0.0053,0.0052,0,-0.0701,-0.0699,-0.0685,-0.0685,-0.0682,-0.0653,-0.0638,-0.0608,-0.0559,-0.0522,-0.0459,-0.0408,-0.0307,-0.022,-0.0145,-0.0025,-0.0021,0.005,0.0067,0.0052,0.0051,0.0009,0.0002,0.0055,0.0055,0.0054,0.0054,0,-0.0725,-0.0715,-0.0714,-0.0697,-0.0695,-0.0697,-0.0674,-0.0658,-0.0609,-0.056,-0.0542,-0.0436,-0.0319,-0.0214,-0.0076,-0.0014,0.0092,0.0135,0.0101,0.0114,0.0122,0.0115,0.0217,0.0219,0.022,0.0221,0.0222,0,-0.0733,-0.0736,-0.0738,-0.0747,-0.0743,-0.074,-0.0737,-0.0693,-0.0667,-0.0566,-0.0538,-0.0419,-0.0313,-0.0115,0.0017,0.0156,0.0146,0.022,0.0204,0.0138,0.0144,0.0134,0.0125,0.0221,0.0222,0.0222,0.0223,0,-0.0747,-0.0754,-0.0759,-0.0781,-0.0789,-0.0789,-0.0773,-0.0758,-0.0687,-0.0633,-0.0525,-0.0435,-0.0229,-0.006,0.0115,0.019,0.0193,0.0238,0.0202,0.0176,0.0147,0.0151,0.0141,0.0229,0.0228,0.0228,0.0227,0.0227,-0.076,-0.0776,-0.0791,-0.0809,-0.0822,-0.0821,-0.0807,-0.0773,-0.0724,-0.0608,-0.053,-0.0369,-0.0212,0.0056,0.0177,0.0282,0.0273,0.0289,0.0285,0.0281,0.0264,0.0239,0.0334,0.0334,0.0334,0.0334,0.0334,0,-0.0767,-0.0787,-0.0812,-0.0831,-0.0845,-0.0845,-0.0815,-0.0773,-0.0703,-0.0589,-0.0483,-0.0284,-0.0098,0.0069,0.0255,0.0349,0.033,0.0351,0.031,0.0304,0.0299,0.0281,0.0357,0.0357,0.0357,0.0357,0,0,-0.077,-0.0797,-0.0813,-0.0839,-0.0851,-0.0838,-0.0813,-0.0744,-0.0649,-0.051,-0.0386,-0.027,-0.0062,0.0062,0.0184,0.0286,0.0264,0.0287,0.026,0.0191,0.0184,0.0256,0.0222,0,0,0,0,0]}],[{"header":{"parameterUnit":"m.s-1","parameterCategory":2,"la1":30.2991,"la2":30.254,"lo1":-89.0895,"lo2":-89.0444,"dy":0.0017,"dx":0.0017,"nx":28,"ny":28,"refTime":"2024-02-16T03:00:00:Z","depth":"4","parameterNumber":2,"parameterNumberName":"U-component_of_CURRENTS"},"data":[0,0,0,0,0,0,0,0,0,0,0,0,0,0,0,0,0,0,0,0,0,0,0,0,0,0,0,0,0,0,0,0,0,0,0,0,0,0,0,0,0,0,0,0,0,0,0,0,0,0,0,0,0,0,0,0,0,0,-0.1144,-0.1145,0,-0.1171,-0.1171,-0.1171,-0.1205,-0.1206,-0.1207,-0.1207,-0.124,-0.124,-0.124,0,0,0,0,0,0,0,0,0,0,0,0,0,-0.1145,-0.1145,-0.1144,-0.1145,-0.1145,-0.1171,-0.1171,-0.1171,-0.1205,-0.1206,-0.1207,-0.1207,-0.124,-0.124,-0.124,0,0,0,0,0,0,0,0,0,0,0,0,0,-0.1155,-0.1145,-0.1144,-0.1165,-0.1168,-0.1171,-0.1171,-0.1171,-0.1205,-0.1206,-0.1207,-0.1208,-0.124,-0.124,-0.124,-0.1225,0,0,-0.1242,-0.1242,0,0,0,0,0,0,0,0,-0.1154,-0.1155,-0.1162,-0.1164,-0.1166,-0.1186,-0.1183,-0.119,-0.1205,-0.119,-0.1207,-0.1208,-0.1222,-0.1224,-0.1226,-0.1227,-0.1228,-0.1242,-0.1242,-0.1242,-0.1242,0,0,0,0,0,0,0,-0.1153,-0.1154,-0.1154,-0.1162,-0.1165,-0.1181,-0.1183,-0.1185,-0.12,-0.1192,-0.1194,-0.1198,-0.1223,-0.1226,-0.1227,-0.1228,-0.1242,-0.1242,-0.1243,-0.1243,-0.1257,-0.1257,0,0,0,0,0,0,-0.1149,-0.1153,-0.1153,-0.1155,-0.1163,-0.1181,-0.1183,-0.1178,-0.12,-0.1205,-0.1197,-0.1199,-0.1224,-0.1227,-0.1228,-0.1263,-0.1242,-0.1243,-0.1243,-0.1257,-0.1257,-0.1257,0,0,0,0,0,0,-0.1149,-0.1148,-0.1152,-0.1156,-0.1157,-0.1179,-0.1174,-0.1179,-0.1201,-0.1205,-0.1209,-0.1218,-0.1225,-0.1228,-0.1247,-0.1263,-0.1243,-0.1243,-0.1257,-0.1257,-0.1257,-0.1299,0,0,0,0,0,0,-0.1149,-0.1148,-0.1151,-0.1155,-0.1157,-0.116,-0.1174,-0.1178,-0.1201,-0.1205,-0.1223,-0.1226,-0.1226,-0.1246,-0.1248,-0.1263,-0.1244,-0.1257,-0.1257,-0.1257,-0.1297,-0.13,-0.1303,0,0,0,0,0,-0.1148,-0.1145,-0.1151,-0.1152,-0.1158,-0.116,-0.1162,-0.1181,-0.1201,-0.1206,-0.1226,-0.1227,-0.1248,-0.1247,-0.1248,-0.1264,-0.1257,-0.1257,-0.1257,-0.1296,-0.13,-0.1303,0,0,0,0,0,0,-0.1144,-0.1148,-0.1155,-0.1153,-0.116,-0.1166,-0.1177,-0.1191,-0.121,-0.1224,-0.1231,-0.1235,-0.1253,-0.125,-0.1249,-0.1266,-0.1251,-0.1251,-0.128,-0.1283,-0.1286,-0.1282,-0.1244,0,0,0,0,0,-0.1144,-0.1146,-0.115,-0.115,-0.1156,-0.1171,-0.118,-0.1192,-0.1206,-0.1218,-0.1233,-0.1245,-0.125,-0.1262,-0.1261,-0.1277,-0.1261,-0.1285,-0.1288,-0.129,-0.1286,-0.1287,-0.1289,-0.1258,-0.1258,-0.1258,0,0,-0.1143,-0.1146,-0.1148,-0.115,-0.1162,-0.1172,-0.1179,-0.1196,-0.1211,-0.1217,-0.125,-0.1255,-0.1254,-0.1269,-0.1278,-0.1275,-0.1288,-0.129,-0.1293,-0.1287,-0.1287,-0.129,-0.1293,-0.1258,-0.1258,-0.1258,0,0,-0.114,-0.1146,-0.1149,-0.1157,-0.1175,-0.1183,-0.1192,-0.121,-0.1227,-0.1249,-0.1258,-0.1274,-0.1287,-0.1292,-0.1294,-0.131,-0.1298,-0.1313,-0.1334,-0.1335,-0.1338,-0.134,-0.1314,-0.1314,-0.1321,-0.1322,-0.1322,0,-0.1143,-0.1147,-0.1151,-0.116,-0.1176,-0.1191,-0.1208,-0.1218,-0.1243,-0.1259,-0.1264,-0.1291,-0.1294,-0.1312,-0.1319,-0.1318,-0.1309,-0.1326,-0.134,-0.1342,-0.1344,-0.1317,-0.1316,-0.1324,-0.1323,-0.1323,-0.1323,0,-0.114,-0.1156,-0.1161,-0.118,-0.1192,-0.121,-0.1226,-0.1248,-0.1274,-0.1284,-0.1312,-0.1316,-0.1332,-0.1336,-0.1335,-0.1352,-0.1337,-0.134,-0.1335,-0.135,-0.132,-0.1318,-0.1326,-0.1326,-0.1325,-0.1325,0,0,-0.1121,-0.1155,-0.1161,-0.1183,-0.1212,-0.1221,-0.1251,-0.1277,-0.1303,-0.1321,-0.135,-0.1359,-0.1367,-0.1368,-0.1372,-0.1376,-0.1378,-0.137,-0.1369,-0.1349,-0.1365,-0.1249,-0.1236,-0.1394,-0.1394,-0.1394,-0.1336,0,-0.1127,-0.1154,-0.1171,-0.1207,-0.1227,-0.1257,-0.128,-0.1306,-0.1329,-0.1356,-0.1364,-0.1382,-0.1377,-0.1392,-0.1396,-0.1383,-0.1377,-0.1392,-0.1348,-0.1346,-0.1246,-0.1231,-0.1395,-0.1334,-0.1334,-0.1334,-0.1333,0,-0.1119,-0.1145,-0.1182,-0.1234,-0.1247,-0.1271,-0.1325,-0.1345,-0.1376,-0.1394,-0.1415,-0.1417,-0.1425,-0.1418,-0.1399,-0.1413,-0.1389,-0.1373,-0.1371,-0.1246,-0.1227,-0.1317,-0.133,-0.133,-0.1331,-0.1331,-0.1331,0,-0.1103,-0.1153,-0.119,-0.1207,-0.1261,-0.1293,-0.1325,-0.1362,-0.1379,-0.1417,-0.1427,-0.1442,-0.1439,-0.1429,-0.1383,-0.1403,-0.1345,-0.1369,-0.1235,-0.1226,-0.1334,-0.1332,-0.1347,-0.1347,-0.1347,-0.1347,-0.1347,0,-0.1092,-0.1124,-0.1191,-0.121,-0.1253,-0.1296,-0.1336,-0.1368,-0.1406,-0.1408,-0.1443,-0.143,-0.1443,-0.1408,-0.1384,-0.1281,-0.1341,-0.1221,-0.1201,-0.1349,-0.135,-0.1331,-0.133,-0.1345,-0.1345,-0.1346,-0.1346,0,-0.1054,-0.1103,-0.1145,-0.1219,-0.1243,-0.1271,-0.133,-0.135,-0.1395,-0.1399,-0.1408,-0.1417,-0.1362,-0.1342,-0.1303,-0.1251,-0.1189,-0.1138,-0.1268,-0.126,-0.1073,-0.1075,-0.0995,-0.099,-0.0986,-0.0983,-0.098,0,-0.1033,-0.1053,-0.1134,-0.1156,-0.1192,-0.1242,-0.1268,-0.1332,-0.1341,-0.1365,-0.135,-0.132,-0.1305,-0.114,-0.115,-0.1073,-0.1059,-0.1024,-0.1074,-0.1046,-0.1037,-0.1045,-0.1052,-0.0974,-0.0973,-0.0972,-0.0971,0,-0.0985,-0.1024,-0.1057,-0.1098,-0.1138,-0.1167,-0.1209,-0.1202,-0.1253,-0.1315,-0.1237,-0.1184,-0.1107,-0.1054,-0.0982,-0.0942,-0.1053,-0.0983,-0.0992,-0.1039,-0.102,-0.1016,-0.1028,-0.0957,-0.0959,-0.0961,-0.0961,0,-0.0946,-0.0952,-0.0994,-0.1017,-0.1063,-0.1058,-0.1096,-0.109,-0.1102,-0.1139,-0.1105,-0.1071,-0.1087,-0.0982,-0.0926,-0.086,-0.086,-0.0844,-0.0861,-0.0876,-0.0862,-0.0822,-0.0664,0,0,0,0,0,-0.0892,-0.0883,-0.0905,-0.0917,-0.0956,-0.0973,-0.1035,-0.1074,-0.1127,-0.1039,-0.1066,-0.0988,-0.0888,-0.0878,-0.0782,-0.0872,-0.0866,-0.0758,-0.086,-0.0882,-0.0898,-0.0891,0,0,0,0,0,0,-0.0855,-0.087,-0.087,-0.082,-0.0805,-0.0829,-0.086,-0.0904,-0.0862,-0.092,-0.0867,-0.0917,-0.0833,-0.0907,-0.0753,-0.0749,-0.079,-0.0755,-0.0751,-0.0873,-0.0887,-0.09,-0.0898,0,0,0,0,0]},{"header":{"parameterUnit":"m.s-1","parameterCategory":2,"la1":30.2991,"la2":30.254,"lo1":-89.0895,"lo2":-89.0444,"dy":0.0017,"dx":0.0017,"nx":28,"ny":28,"refTime":"2024-02-16T03:00:00:Z","depth":"4","parameterNumber":3,"parameterNumberName":"V-component_of_CURRENTS"},"data":[0,0,0,0,0,0,0,0,0,0,0,0,0,0,0,0,0,0,0,0,0,0,0,0,0,0,0,0,0,0,0,0,0,0,0,0,0,0,0,0,0,0,0,0,0,0,0,0,0,0,0,0,0,0,0,0,0,0,-0.0404,-0.0404,0,-0.0406,-0.0406,-0.0406,-0.0397,-0.0397,-0.0397,-0.0396,-0.0383,-0.0383,-0.0382,0,0,0,0,0,0,0,0,0,0,0,0,0,-0.0376,-0.0377,-0.0404,-0.0404,-0.0404,-0.0406,-0.0406,-0.0406,-0.0397,-0.0397,-0.0397,-0.0396,-0.0383,-0.0383,-0.0382,0,0,0,0,0,0,0,0,0,0,0,0,0,-0.0385,-0.0377,-0.0404,-0.04,-0.0399,-0.0406,-0.0406,-0.0406,-0.0397,-0.0397,-0.0397,-0.0396,-0.0383,-0.0383,-0.0382,-0.0391,0,0,-0.0382,-0.0382,0,0,0,0,0,0,0,0,-0.0384,-0.0386,-0.04,-0.04,-0.0399,-0.0401,-0.0391,-0.04,-0.0398,-0.0399,-0.0396,-0.0396,-0.0387,-0.0387,-0.0389,-0.039,-0.039,-0.0382,-0.0382,-0.0382,-0.0382,0,0,0,0,0,0,0,-0.0384,-0.0386,-0.0406,-0.04,-0.04,-0.0392,-0.0393,-0.0393,-0.0396,-0.0399,-0.0398,-0.0397,-0.0387,-0.0389,-0.0389,-0.039,-0.0382,-0.0382,-0.0382,-0.0382,-0.0394,-0.0395,0,0,0,0,0,0,-0.0384,-0.0385,-0.0405,-0.0406,-0.039,-0.0393,-0.0394,-0.0401,-0.0396,-0.0395,-0.0398,-0.0397,-0.039,-0.0389,-0.0388,-0.0378,-0.0382,-0.0382,-0.0382,-0.0394,-0.0395,-0.0395,0,0,0,0,0,0,-0.0384,-0.0386,-0.0405,-0.0394,-0.0396,-0.0394,-0.0402,-0.0401,-0.0407,-0.0395,-0.0394,-0.0404,-0.0389,-0.0388,-0.0396,-0.0378,-0.0382,-0.0382,-0.0394,-0.0394,-0.0395,-0.037,0,0,0,0,0,0,-0.0383,-0.0386,-0.0397,-0.0395,-0.0397,-0.0414,-0.0402,-0.0402,-0.0407,-0.0406,-0.0401,-0.0399,-0.0389,-0.0397,-0.0396,-0.0378,-0.0382,-0.0393,-0.0394,-0.0395,-0.037,-0.037,-0.0369,0,0,0,0,0,-0.0382,-0.0398,-0.0397,-0.04,-0.041,-0.0415,-0.0416,-0.0412,-0.0408,-0.0415,-0.0413,-0.0399,-0.0401,-0.0397,-0.0397,-0.0377,-0.0393,-0.0394,-0.0395,-0.0371,-0.037,-0.0369,0,0,0,0,0,0,-0.0393,-0.0398,-0.0398,-0.0415,-0.0416,-0.0413,-0.0421,-0.0417,-0.0422,-0.0423,-0.041,-0.0408,-0.0406,-0.0406,-0.0403,-0.0387,-0.0392,-0.0393,-0.0374,-0.0373,-0.0373,-0.0357,-0.0381,0,0,0,0,0,-0.04,-0.0414,-0.0413,-0.0429,-0.0429,-0.0427,-0.043,-0.0428,-0.0428,-0.043,-0.0425,-0.0421,-0.041,-0.0404,-0.0404,-0.0399,-0.0377,-0.0387,-0.0387,-0.0386,-0.0375,-0.0319,-0.0311,-0.0398,-0.0398,-0.0398,0,0,-0.0411,-0.0415,-0.0424,-0.0432,-0.0433,-0.0434,-0.0428,-0.0436,-0.0433,-0.0428,-0.043,-0.0424,-0.0413,-0.0403,-0.0401,-0.0398,-0.0355,-0.0387,-0.0386,-0.0375,-0.0319,-0.031,-0.0302,-0.0399,-0.0399,-0.0398,0,0,-0.0429,-0.044,-0.0451,-0.0451,-0.0454,-0.045,-0.0453,-0.0454,-0.045,-0.0458,-0.0442,-0.0422,-0.0431,-0.0396,-0.0383,-0.0383,-0.0359,-0.0392,-0.0365,-0.0311,-0.0303,-0.0295,-0.027,-0.026,-0.0384,-0.0384,-0.0384,0,-0.0439,-0.045,-0.0455,-0.0459,-0.0456,-0.0456,-0.0458,-0.0456,-0.046,-0.0445,-0.0461,-0.0427,-0.0418,-0.0366,-0.0365,-0.0374,-0.0357,-0.0363,-0.0306,-0.0298,-0.029,-0.0267,-0.0256,-0.0383,-0.0383,-0.0383,-0.0384,0,-0.0455,-0.0464,-0.047,-0.0472,-0.0472,-0.0478,-0.0469,-0.0469,-0.0469,-0.0454,-0.0425,-0.0409,-0.0379,-0.0372,-0.0369,-0.0305,-0.0316,-0.0314,-0.03,-0.0279,-0.0258,-0.0247,-0.0382,-0.0382,-0.0382,-0.0383,0,0,-0.0477,-0.048,-0.0483,-0.0479,-0.0478,-0.0479,-0.047,-0.045,-0.0432,-0.0427,-0.0392,-0.036,-0.0341,-0.0325,-0.0305,-0.0256,-0.0192,-0.0264,-0.0262,-0.0226,-0.0094,-0.0118,-0.0109,-0.0178,-0.0176,-0.0174,-0.0106,0,-0.0485,-0.0493,-0.049,-0.0492,-0.049,-0.0479,-0.0468,-0.0449,-0.0434,-0.0404,-0.0358,-0.0331,-0.0326,-0.031,-0.0254,-0.0215,-0.0161,-0.0212,-0.0132,-0.013,-0.014,-0.0096,-0.0167,-0.0098,-0.0095,-0.0093,-0.0092,0,-0.0496,-0.0498,-0.0504,-0.049,-0.0488,-0.049,-0.046,-0.0451,-0.04,-0.0385,-0.0332,-0.0308,-0.0235,-0.0242,-0.0132,-0.017,-0.0126,-0.0092,-0.0089,-0.0108,-0.0133,-0.012,-0.0072,-0.0074,-0.0075,-0.0077,-0.0078,0,-0.0503,-0.0503,-0.0508,-0.0506,-0.0495,-0.0491,-0.0484,-0.0445,-0.0428,-0.0371,-0.035,-0.0266,-0.0234,-0.0156,-0.0099,-0.0111,0.0011,0.0005,0.0032,0.0029,0.0019,0.001,0.0104,0.0104,0.0104,0.0103,0.0103,0,-0.0504,-0.0508,-0.0516,-0.0519,-0.0519,-0.0505,-0.0493,-0.047,-0.0428,-0.0397,-0.0343,-0.03,-0.021,-0.014,-0.0081,0.0001,0.003,0.0052,0.0059,0.0022,0.0013,0.0026,0.0016,0.0106,0.0105,0.0105,0.0104,0,-0.0509,-0.0515,-0.0523,-0.0523,-0.0526,-0.053,-0.052,-0.0503,-0.0465,-0.0423,-0.0407,-0.0319,-0.0229,-0.0144,-0.0023,0.0015,0.0099,0.0125,0.0065,0.0064,0.0076,0.0066,0.017,0.017,0.017,0.017,0.017,0,-0.0507,-0.0515,-0.0538,-0.0552,-0.0559,-0.0563,-0.0564,-0.0531,-0.0509,-0.0433,-0.0408,-0.0317,-0.0254,-0.0101,-0.0016,0.0102,0.0116,0.0151,0.0137,0.0094,0.009,0.008,0.007,0.017,0.017,0.017,0.017,0,-0.0505,-0.0525,-0.0536,-0.0571,-0.0587,-0.0593,-0.0588,-0.0572,-0.0522,-0.0489,-0.0397,-0.0311,-0.0208,-0.0098,-0.001,0.0075,0.0123,0.0151,0.0152,0.0139,0.0095,0.0089,0.0079,0.0171,0.0171,0.0171,0.0171,0,-0.0509,-0.0526,-0.0554,-0.0578,-0.0606,-0.0613,-0.0607,-0.0569,-0.0539,-0.0449,-0.0421,-0.0304,-0.0232,-0.0111,-0.0028,0.0048,0.0069,0.0085,0.009,0.009,0.004,-0.0029,0.0033,0,0,0,0,0,-0.0506,-0.0527,-0.0555,-0.0583,-0.0614,-0.0625,-0.0616,-0.0599,-0.055,-0.0488,-0.045,-0.0351,-0.0209,-0.0142,-0.0067,-0.0039,0.0068,0.0049,0.0086,0.0171,0.0171,0.0123,0,0,0,0,0,0,-0.0505,-0.0536,-0.0552,-0.0584,-0.0604,-0.0626,-0.0622,-0.059,-0.0545,-0.0487,-0.0409,-0.0349,-0.0212,-0.0254,-0.0071,-0.0046,-0.0017,0.0122,0.0123,0.0171,0.0171,0.0171,0.0122,0,0,0,0,0]}]]